Regional Weather Roundup
Issued by NWS

Home | Current Version | Previous Version | Graphics & Text | Print | Product List | Glossary On
Versions: 1 2 3 4 5 6 7 8 9 10 11 12 13 14 15 16 17 18 19 20 21 22 23 24 25 26 27 28 29 30 31 32 33 34 35 36 37 38 39 40 41 42 43 44 45 46 47 48 49 50
000
ASUS45 KBOU 050710
RWRCO

WEATHER ROUNDUP FOR COLORADO
NATIONAL WEATHER SERVICE DENVER/BOULDER CO
100 AM MDT SUN JUL 05 2015

NOTE: "FAIR" INDICATES FEW OR NO CLOUDS BELOW 12000 FEET WITH NO
SIGNIFICANT WEATHER AND/OR OBSTRUCTIONS TO VISIBILITY.

COZ001>005-013-030-031-050800-
...NORTHWEST COLORADO...

CITY           SKY/WX    TMP DP  RH WIND       PRES   REMARKS
CRAIG          MOCLDY    65  51  60 E8        30.11S
HAYDEN         MOCLDY    61  46  59 SE7       30.13F
MEEKER         CLOUDY    66  48  52 SW3       30.12F
MOUNT WERNER   NOT AVBL
STEAMBOAT SPGS MOCLDY    56  47  72 CALM      30.17S
WALDEN         MOCLDY    50  43  76 E7        30.27S
$$

COZ006>008-011-050800-
...WEST CENTRAL VALLEYS...

CITY           SKY/WX    TMP DP  RH WIND       PRES   REMARKS
GRAND JUNCTION LGT RAIN  69  61  75 N16       30.07R
MONTROSE       CLOUDY    74  49  41 SW5       30.15R
EAGLE          PTCLDY    64  46  52 E8        30.18S
RIFLE          CLOUDY    65  59  81 CALM      30.10R
DELTA          CLOUDY    78  51  38 W16G23    30.11R
NUCLA          DRIZZLE   64  55  72 W3        30.25S
$$

COZ017>023-064>068-050800-
...SOUTHWEST COLORADO...

CITY           SKY/WX    TMP DP  RH WIND       PRES   REMARKS
DURANGO        CLOUDY    59  57  93 E3        30.23S
CORTEZ         CLOUDY    65  57  75 CALM      30.22R
PAGOSA SPRINGS CLOUDY    60  54  80 CALM      30.29F
TELLURIDE      CLOUDY    57  50  78 SE5       30.41S
WOLF CREEK PAS NOT AVBL
$$

COZ009-010-012-014-032>034-037-058>063-050800-
...CENTRAL COLORADO...

CITY           SKY/WX    TMP DP  RH WIND       PRES   REMARKS
ASPEN          MOCLDY    63  47  55 SE10      30.25F
BUENA VISTA    MOCLDY    53  48  84 W5        30.30S
COPPER MTN     PTCLDY    54  39  58 S14       30.59S
BERTHOUD PASS  FAIR      46  36  66 NW10      30.63S
COTTONWOOD PAS NOT AVBL
GUNNISON       CLOUDY    61  45  55 N9        30.31S
KREMMLING      CLEAR     59  43  55 E5        30.24S
LEADVILLE      PTCLDY    48  44  86 CALM      30.42S
MONARCH PASS   CLOUDY    46  39  76 W12       30.69S
SALIDA         MOCLDY    62  50  65 SW5       30.32S
SUNLIGHT       MOCLDY    55  41  58 CALM      30.50S
WILKERSON PASS MOCLDY    50  41  71 W9G17     30.53F
$$

COZ069>075-050800-
...SAN LUIS VALLEY/SANGRE DE CRISTO MOUNTAINS...

CITY           SKY/WX    TMP DP  RH WIND       PRES   REMARKS
ALAMOSA        MOCLDY    55  48  77 E6        30.25F
LA VETA PASS   MOCLDY    50  37  62 MISG      30.42F
SAGUACHE       CLOUDY    57  52  82 N5        30.31S
$$

COZ035-036-038>040-050800-
...NORTHERN COLORADO FRONT RANGE...

CITY           SKY/WX    TMP DP  RH WIND       PRES   REMARKS
DENVER INTL AP PTCLDY    70  50  49 SW9       30.00F
DMNS CITY PARK   N/A     69  51  51 E9        30.00S
AURORA         PTCLDY    69  50  52 S7        30.03F
FRONT RANGE AP PTCLDY    73  50  43 SW10      30.02F
ERIE MUNI ARPT PTCLDY    64  51  62 CALM      29.98F
BOULDER MUN AP PTCLDY    68  50  52 NW3       29.99F
CENTENNIAL     MOCLDY    66  52  60 S6        30.04F
BROOMFIELD     PTCLDY    72  48  43 CALM      30.02F
FORT COLLINS   PTCLDY    64  55  72 W5        29.99F
LONGMONT       PTCLDY    67  53  60 NW5       30.00S
$$

COZ041-046-047-076>085-087-088-050800-
...PIKES PEAK/PALMER DIVIDE AND SOUTHERN FOOTHILLS...

CITY           SKY/WX    TMP DP  RH WIND       PRES   REMARKS
COLO. SPRINGS  MOCLDY    65  49  56 N9        30.09F
A. F. ACADEMY  MOCLDY    61  50  66 NE6       30.11F
ELLICOTT       MOCLDY   N/A N/A N/A E5        30.07F
FALCON         MOCLDY    61  46  57 W7        30.15F
FORT CARSON    MOCLDY    64  52  64 N8        30.05F
LIMON          PTCLDY    59  54  83 NW5       30.01F
MONUMENT HILL  NOT AVBL
TRINIDAD       PTCLDY    65  52  62 NW6       30.08F
$$

COZ042>045-048>051-090-091-050800-
...NORTHEAST COLORADO...

CITY           SKY/WX    TMP DP  RH WIND       PRES   REMARKS
GREELEY ARPT   PTCLDY    64  57  77 NW6       29.96S
AKRON          MOCLDY    74  50  42 SE8G21    29.97R
BURLINGTON     PTCLDY    69  56  62 SE10      29.93F
WRAY           MOCLDY    74  59  59 S5        29.90F
STERLING       MOCLDY    70  57  64 S6          N/A
HOLYOKE        MOCLDY    73  63  68 S7        29.90F
FORT MORGAN    MOCLDY    66  51  58 CALM      29.93F
$$

COZ086-089-092>099-050800-
...SOUTHEAST COLORADO...

CITY           SKY/WX    TMP DP  RH WIND       PRES   REMARKS
PUEBLO         MOCLDY    70  54  56 NW6       29.97S
LA JUNTA       PTCLDY    70  53  54 W10       29.95R
LAMAR          PTCLDY    72  57  59 SW8       29.89R
SPRINGFIELD      N/A     68  62  81 S10       29.99R
$$


USA.gov is the U.S. government's official web portal to all federal, state and local government web resources and services.